Home   Weather   Latakia   Past weeks

Flag for Syria Past Weather in Latakia, Syria — Yesterday and Last 2 Weeks

Now
82 °F

Scattered clouds.


Feels Like: 87 °F
Forecast: 79 / 86 °F
Wind: 12 mph from Southwest

Location: Lattakia Airport

Current Time: Aug 14, 2018 at 9:25:15 am

Latest Report: Aug 14, 2018 at 9:00 am


Visibility: N/A

Pressure: 29.71 "Hg

Humidity: 70%

Dew Point: 72 °F

Location of LatakiaLocation

Past Weather in Latakia — Graph

°F

Latakia Temperature Yesterday

Maximum temperature yesterday: 90 °F (at 2:00 pm)
Minimum temperature yesterday: 75 °F (at 6:00 am)
Average temperature yesterday: 82 °F

High & Low Weather Summary for the Past Weeks

 TemperatureHumidityPressure
High102 °F (Aug 7, 2:00 pm)89% (Aug 4, 12:00 am)29.86 "Hg (Aug 4, 12:00 am)
Low72 °F (Aug 11, 4:00 am)16% (Aug 7, 2:00 pm)29.62 "Hg (Aug 7, 2:00 pm)
Average82 °F71%29.75 "Hg
* Reported Jul 30 9:00 am — Aug 14 8:00 am, Latakia. Weather by CustomWeather, © 2018

Note: Actual official high and low records may vary slightly from our data, if they occured in-between our weather recording intervals... More about our weather records

Advertising

Latakia Weather History for the Previous 24 Hours

Scroll right to see more
 ConditionsComfort  
Time TempWeatherWind HumidityBarometerVisibility
8:00 am
Tue, Aug 14
84 °FScattered clouds.12 mph70%29.68 "HgN/A
7:00 am79 °FScattered clouds.9 mph79%29.68 "HgN/A
6:00 am77 °FScattered clouds.9 mph74%29.68 "HgN/A
5:00 am77 °FPassing clouds.7 mph74%29.68 "HgN/A
4:00 am77 °FPassing clouds.7 mph74%29.68 "HgN/A
3:00 am77 °FPassing clouds.9 mph74%29.68 "HgN/A
2:00 am79 °FPassing clouds.9 mph79%29.68 "HgN/A
1:00 am79 °FPassing clouds.9 mph74%29.71 "HgN/A
12:00 am79 °FPassing clouds.9 mph84%29.71 "HgN/A
11:00 pm
Mon, Aug 13
79 °FPassing clouds.7 mph84%29.71 "HgN/A
10:00 pm81 °FPassing clouds.9 mph79%29.71 "HgN/A
9:00 pm82 °FPassing clouds.12 mph74%29.71 "HgN/A
8:00 pm82 °FPassing clouds.14 mph74%29.71 "HgN/A
7:00 pm84 °FScattered clouds.14 mph70%29.68 "HgN/A
6:00 pm86 °FScattered clouds.12 mph70%29.68 "HgN/A
5:00 pm86 °FScattered clouds.12 mph62%29.71 "HgN/A
4:00 pm88 °FScattered clouds.12 mph59%29.71 "HgN/A
2:00 pm90 °FScattered clouds.14 mph52%29.71 "HgN/A
12:00 pm88 °FScattered clouds.12 mph52%29.74 "HgN/A
10:00 am84 °FScattered clouds.15 mph66%29.74 "HgN/A
Weather by CustomWeather, © 2018

See weather overview